SCP
0 0 0 0 0 0 0 0 0 0 0 0 0 0 1 1 1 2 1 1 1 1 1 1 1 1 1 1 1 1 0 0 0 0 0 0 0 0 0 0 0 -0 -0 0
0 0 0 0 0 0 0 0 0 0 0 0 0 0 1 1 2 2 2 1 1 1 1 1 1 1 1 1 1 1 1 1 0 0 0 0 0 0 0 0 0 0 0 0
0 0 0 0 0 0 0 0 0 0 0 0 0 1 1 1 2 2 2 1 1 1 1 1 1 1 1 1 1 1 1 1 1 1 1 1 0 0 0 0 0 0 0 0
0 0 0 0 0 0 0 0 0 0 0 1 1 1 2 2 2 2 2 2 1 1 1 1 1 1 1 1 1 1 1 1 1 1 1 1 1 0 0 0 0 0 0 0
0 0 0 0 0 0 0 0 0 0 1 1 2 2 2 2 2 2 2 2 2 2 2 2 2 2 1 1 1 1 1 1 1 1 1 1 1 0 0 0 0 0 0 0
0 0 0 0 0 0 0 0 1 1 1 2 2 2 3 3 3 3 3 3 3 2 2 2 2 2 1 1 1 1 1 1 1 1 1 1 1 0 0 0 0 0 0 0
0 0 0 0 0 0 0 1 1 1 2 2 2 3 3 3 3 3 3 3 3 3 3 2 2 2 1 1 1 1 1 1 1 1 1 1 1 0 0 0 0 0 0 0
0 0 0 0 0 0 1 1 1 2 2 3 3 3 3 4 4 3 3 3 3 3 3 2 2 2 2 1 1 1 1 1 1 1 1 1 1 0 0 0 0 0 0 0
0 0 0 0 0 1 1 1 1 2 2 3 4 3 3 3 3 3 3 3 3 3 3 2 2 2 2 1 1 1 1 1 1 1 1 1 1 0 0 0 0 0 0 0
0 0 0 0 1 1 1 1 1 2 2 3 3 3 3 2 2 2 2 2 2 2 2 2 2 1 1 1 1 1 1 1 1 1 1 0 0 0 0 0 0 0 0 0
0 0 0 1 1 1 1 1 1 1 2 2 2 2 2 2 2 2 2 2 2 2 2 1 1 1 1 1 1 1 1 1 1 0 0 0 0 0 0 0 0 0 0 0
0 0 0 0 1 1 1 1 1 1 1 1 1 2 2 1 1 1 1 1 1 1 1 1 1 1 1 1 1 1 1 0 0 0 0 0 0 0 0 0 0 0 0 0
0 0 0 0 1 1 1 1 1 1 1 1 1 1 1 1 1 1 1 1 1 1 1 1 1 0 0 0 0 0 0 0 0 0 0 0 0 0 0 0 0 0 0 0
0 0 0 0 0 1 1 1 1 1 1 1 1 1 1 1 1 1 1 0 1 1 1 0 0 1 1 0 0 0 0 0 0 0 0 0 0 0 0 0 0 0 0 0
0 0 0 0 0 0 1 1 1 1 1 1 1 1 1 1 1 0 0 0 0 1 1 0 0 1 1 1 0 0 0 0 0 0 0 0 0 0 0 0 0 0 0 0
0 0 0 0 0 0 0 0 1 1 1 1 1 0 0 0 0 0 0 0 0 0 0 0 0 1 1 1 0 0 0 0 0 0 0 0 0 0 0 0 0 0 0 0
0 0 0 0 0 0 0 0 0 0 0 0 0 0 0 0 0 0 0 0 0 0 0 0 0 0 0 0 0 0 0 0 0 0 0 0 0 0 0 0 0 0 0 0
0 0 0 0 0 0 0 0 0 0 0 0 0 0 0 0 0 0 0 0 0 0 0 0 0 0 0 0 0 0 0 0 0 0 0 0 0 0 0 0 0 0 0 0
0 0 0 0 0 0 0 0 0 0 0 0 0 0 0 0 0 0 0 0 0 0 0 0 0 0 0 0 0 0 0 0 0 0 0 0 0 0 0 0 0 0 0 0
0 0 0 0 0 0 0 0 0 0 0 0 0 0 0 0 0 0 0 0 0 0 0 0 0 0 0 0 0 0 0 0 0 0 0 0 0 0 0 0 0 0 0 0
0 0 0 0 0 0 0 0 0 0 0 0 0 0 0 0 0 0 0 0 0 0 0 0 0 0 0 0 0 0 0 0 0 0 0 0 0 0 0 0 0 0 0 0
0 0 0 0 0 0 0 0 0 0 0 0 0 0 0 0 0 0 0 0 0 0 0 0 0 0 0 0 0 0 0 0 0 0 0 0 0 0 0 0 0 0 0 0
0 0 0 0 0 0 0 0 0 0 0 0 0 0 0 0 0 0 0 0 0 0 0 0 0 0 0 0 0 0 0 0 0 0 0 0 0 0 0 0 0 0 0 0
0 0 0 0 0 0 0 0 0 0 0 0 0 0 0 0 0 0 0 0 0 0 0 0 0 0 0 0 0 0 0 0 0 0 0 0 0 0 0 0 0 0 0 0
0 0 0 0 0 0 0 0 0 0 0 0 0 0 0 0 0 0 0 0 0 0 0 0 0 0 0 0 0 0 0 0 0 0 0 0 0 0 0 0 0 0 0 0
0 0 0 0 0 0 0 0 0 0 0 0 0 0 0 0 0 0 0 0 0 0 0 0 0 0 0 0 0 0 0 0 0 0 0 0 0 0 0 0 0 0 0 0
0 0 0 0 0 0 0 0 0 0 0 0 0 0 0 0 0 0 0 0 0 0 0 0 0 0 0 0 0 0 0 0 0 0 0 0 0 0 0 0 0 0 0 0
Wind_Speed
6 6 4 2 3 3 5 9 9 9 10 10 10 11 11 11 10 10 10 9 10 9 8 7 7 7 7 7 7 7 7 6 6 5 4 4 3 3 3 2 3 2 2 2
1 1 2 1 3 4 4 4 6 6 7 9 7 6 9 11 12 11 11 11 11 10 9 9 9 8 7 7 7 7 7 7 6 5 4 4 4 3 2 2 1 1 1 2
1 1 4 3 4 3 4 4 5 8 9 5 5 8 12 13 13 12 11 9 9 10 10 9 8 8 8 8 6 7 7 6 5 5 5 5 4 3 3 2 2 2 1 1
3 3 4 9 4 2 2 4 3 4 5 8 9 7 6 9 12 11 10 9 8 8 7 6 6 6 6 7 7 7 6 5 5 5 5 4 4 4 3 2 2 2 2 2
4 3 5 7 4 1 1 4 5 1 4 6 8 9 4 1 7 9 10 9 7 7 6 6 7 7 8 6 6 6 6 5 5 6 5 5 5 4 2 2 2 2 2 2
4 4 5 7 5 2 3 2 6 1 5 7 7 6 3 2 4 6 7 7 6 7 6 6 6 7 8 7 6 6 6 5 5 5 6 5 5 4 3 2 2 2 2 1
3 3 6 7 6 4 3 5 4 1 4 6 5 5 5 5 5 6 7 6 7 8 7 5 6 7 6 6 6 5 5 4 4 4 5 5 4 3 3 2 3 3 2 1
4 3 8 6 3 1 5 3 1 3 4 7 8 8 7 7 7 7 7 7 7 7 6 4 5 6 6 4 4 4 4 4 4 4 4 4 4 3 3 3 3 3 2 1
7 7 5 3 1 1 3 3 2 4 5 9 10 7 7 6 6 6 6 6 6 7 6 4 3 5 5 2 3 4 5 4 4 3 3 3 4 3 2 2 2 2 2 2
1 1 2 3 4 4 3 4 4 5 6 8 9 7 7 6 5 5 5 6 5 6 7 4 3 4 3 2 3 5 4 3 3 3 3 3 2 2 2 2 2 2 2 2
1 2 4 6 5 3 4 5 7 6 6 6 8 7 6 5 5 5 5 4 5 5 5 4 3 4 4 3 4 4 4 3 3 3 4 4 3 3 1 1 1 2 2 2
1 3 1 2 3 4 5 5 5 7 6 6 6 6 6 6 5 5 5 5 5 5 5 4 4 5 4 4 4 4 3 2 2 2 3 3 3 3 6 4 4 3 1 1
2 2 0 2 3 5 5 5 5 6 6 7 5 5 6 5 5 5 5 5 5 6 5 5 4 4 3 3 4 4 3 2 2 2 2 3 3 3 2 3 5 6 4 3
1 2 3 4 3 4 4 6 7 6 6 6 6 6 7 6 5 5 4 4 5 5 5 4 4 2 1 2 3 3 3 2 2 2 2 2 2 2 2 2 1 1 3 3
1 1 1 1 2 3 3 5 6 5 4 4 5 5 6 6 5 4 4 4 5 4 3 3 3 1 1 2 2 3 2 1 2 1 1 2 2 2 1 2 2 1 1 1
0 1 2 2 2 2 3 4 3 2 3 3 4 5 5 5 4 4 4 4 4 3 2 2 1 0 1 2 2 1 1 3 3 2 2 2 2 2 1 1 1 1 1 1
2 0 0 1 1 1 1 2 3 2 3 3 4 5 5 6 5 4 3 3 3 3 2 2 1 0 1 2 2 1 1 1 4 3 2 2 2 2 2 2 2 1 1 2
2 2 2 2 2 1 0 1 3 3 3 4 5 6 6 6 5 4 3 3 3 2 1 1 1 1 1 1 1 1 1 1 2 2 2 2 2 2 2 2 2 2 1 1
2 2 2 2 1 2 2 2 3 3 3 5 6 5 5 6 5 5 4 4 3 2 0 1 2 2 1 1 1 1 1 2 2 1 1 2 2 2 2 2 2 2 2 2
1 1 2 2 2 2 2 2 3 4 4 5 6 5 4 4 5 5 4 3 2 2 2 2 2 1 1 1 2 1 1 2 2 1 1 1 1 1 2 2 2 2 2 2
1 1 1 2 1 1 1 2 3 4 4 4 5 6 5 4 4 4 4 2 1 1 2 2 1 1 0 1 2 1 1 2 2 2 2 2 1 1 1 1 1 2 2 2
1 1 1 1 2 1 1 1 2 3 4 4 5 6 6 5 4 3 2 2 1 2 2 2 1 1 2 2 2 1 1 1 1 1 2 2 2 2 1 1 1 1 2 2
1 1 1 2 2 2 2 2 2 3 4 4 5 6 5 5 4 4 2 1 1 3 3 1 2 3 3 2 1 1 1 1 1 1 2 2 2 2 2 2 2 2 2 2
1 1 1 2 3 4 3 2 2 2 3 3 4 5 5 4 2 2 3 4 4 5 3 3 4 4 3 2 1 1 1 1 1 1 1 1 1 1 1 1 1 1 1 1
2 2 3 3 3 2 2 3 4 4 5 4 4 4 4 3 3 3 3 3 5 5 3 2 3 3 2 2 2 2 2 2 2 2 1 1 1 1 1 1 1 1 1 1
3 3 2 2 2 2 2 3 3 3 4 4 4 3 3 3 4 3 3 3 4 3 2 1 2 2 2 2 3 3 3 3 3 3 2 2 2 2 2 1 2 1 1 1
3 3 3 3 3 3 3 3 4 4 3 4 4 3 4 3 3 3 3 3 3 2 2 2 2 2 2 3 3 3 3 3 3 3 3 3 2 2 2 2 2 1 1 2
Wind_Direction
191 192 170 197 258 236 190 188 186 212 207 222 207 186 176 170 165 161 163 165 169 171 170 169 171 174 174 174 174 172 172 178 187 189 188 185 186 191 194 199 209 210 206 207
103 109 85 343 298 295 262 219 202 197 230 228 204 170 164 167 162 163 168 174 177 175 172 174 176 176 175 176 175 169 172 181 181 177 177 179 181 178 175 183 179 162 168 179
199 11 49 289 250 253 272 258 194 208 227 202 167 170 173 171 166 166 166 167 175 177 179 180 177 171 174 173 163 161 168 175 177 173 176 181 173 160 166 181 159 144 155 146
124 86 221 241 246 226 247 287 264 215 206 175 172 171 164 165 160 159 161 165 176 176 174 168 160 157 157 151 152 160 167 171 175 171 173 171 162 165 176 167 154 153 144 135
116 161 270 295 304 323 225 306 317 210 153 148 130 92 59 140 153 158 162 163 168 169 162 154 152 149 140 143 148 152 162 171 175 169 167 163 162 168 168 158 156 154 150 148
118 151 218 251 282 305 92 329 319 104 145 145 122 119 201 196 140 136 137 142 142 137 127 131 141 140 141 151 156 168 177 178 173 169 167 169 169 169 165 163 165 154 149 152
146 194 254 261 296 28 105 232 293 106 145 138 134 158 155 129 117 117 113 112 116 118 122 133 136 134 141 151 172 182 170 161 158 162 165 165 162 162 157 157 151 151 151 151
154 188 252 287 355 106 204 223 5 84 107 103 99 101 110 113 109 112 112 109 110 114 114 113 121 129 138 160 173 147 140 145 151 153 161 157 149 154 155 156 159 167 171 189
183 206 241 302 121 174 153 120 87 89 95 111 109 112 112 108 105 108 113 109 105 108 102 90 98 117 128 154 145 133 136 147 150 145 146 145 151 157 157 164 177 193 197 209
142 294 312 9 52 43 70 105 97 99 105 106 107 112 104 102 104 102 99 101 102 104 104 96 83 89 103 102 125 130 134 140 141 139 129 109 111 131 152 174 189 200 211 218
46 312 353 7 17 39 54 78 87 82 87 102 106 109 113 112 109 108 105 100 105 109 108 103 93 81 69 71 93 106 114 119 124 125 126 113 90 60 83 103 196 203 217 205
233 274 193 302 334 39 61 65 95 96 80 80 95 117 116 112 106 104 105 104 103 100 96 84 74 68 57 60 83 103 107 111 120 121 122 123 120 83 44 50 39 49 56 153
207 259 166 314 16 39 66 68 77 98 109 105 101 106 99 95 92 95 97 105 108 105 100 93 81 59 47 57 81 93 105 115 114 117 130 148 153 147 132 50 51 48 46 70
3 48 24 1 2 10 59 81 80 80 87 97 101 98 97 91 87 90 96 111 115 111 107 103 97 80 37 63 83 94 100 104 112 129 145 155 164 161 160 159 137 34 31 49
358 98 188 261 30 33 54 85 99 100 96 94 108 114 114 117 117 116 112 110 104 99 98 100 101 97 72 87 90 97 114 135 132 129 135 134 130 132 143 145 137 126 102 46
66 45 70 68 66 62 68 85 104 129 130 124 129 132 127 124 122 119 114 116 119 125 126 117 121 157 99 102 103 109 123 124 118 119 119 116 125 137 141 139 140 148 162 164
127 132 12 55 16 36 113 135 147 160 150 144 149 135 122 118 114 115 118 130 135 144 147 145 160 148 101 108 126 142 125 127 123 122 126 135 146 155 156 155 163 173 189 184
147 171 176 161 152 142 143 133 137 143 157 156 140 129 130 135 143 151 150 135 119 102 91 123 118 82 71 86 99 122 135 143 143 147 149 149 154 157 158 166 177 185 203 194
92 96 73 58 99 135 129 123 126 132 138 142 143 155 164 162 161 155 146 136 130 128 249 107 101 89 79 55 74 108 131 137 133 138 145 155 158 159 168 181 190 200 200 191
39 75 72 46 43 82 114 134 134 145 150 154 153 154 162 165 154 142 134 139 169 182 177 137 113 94 69 41 64 101 122 128 133 136 132 148 162 175 183 184 188 201 203 200
13 90 76 68 70 93 130 144 147 158 156 158 161 159 160 156 144 136 130 134 215 155 136 127 117 118 94 82 78 101 112 115 122 135 139 139 141 157 178 194 199 205 213 218
357 82 99 94 99 73 65 109 124 134 136 140 146 143 137 131 125 111 113 149 169 134 115 109 116 111 102 91 76 91 117 132 134 139 144 151 155 163 180 195 213 223 224 226
5 89 123 134 130 110 72 66 86 115 126 133 134 135 134 133 137 137 138 154 129 115 105 102 105 93 86 75 70 91 133 144 151 155 162 172 180 186 199 207 218 232 236 241
36 96 115 107 100 94 82 61 63 90 106 112 120 128 127 118 106 116 133 138 133 117 105 101 87 71 62 47 27 54 96 112 129 146 149 154 155 161 192 191 201 254 264 273
45 79 92 87 87 92 97 94 81 79 82 83 86 96 106 118 130 133 120 123 124 114 100 96 88 72 53 42 50 61 66 72 79 84 86 81 76 71 54 42 33 15 350 328
53 73 87 93 100 103 100 98 93 86 86 85 75 78 91 99 106 105 105 115 118 108 93 69 69 71 62 64 69 70 68 63 61 57 57 63 55 53 49 42 29 21 4 345
48 58 68 59 50 60 78 87 94 93 95 98 88 75 84 92 93 95 98 102 100 91 80 72 75 77 74 74 72 72 71 68 64 61 53 48 44 39 28 29 24 12 5 3